Tracking 25709 objects as of 25-May-2022
HD Live streaming from Space Station
objects crossing your sky now

SL-12 R/B(2)

Track SL-12 R/B(2) now!


NORAD ID: 26557
Int'l Code: 2000-059D
Perigee: 7,380.6 km
Apogee: 35,609.0 km
Inclination: 14.3 °
Period: 771.6 minutes
Semi major axis: 27865 km
RCS: 24.2849 m2 (large)
Launch date: October 1, 2000
Source: Commonwealth of Independent States (former USSR) (CIS)
Launch site: TYURATAM MISSILE AND SPACE COMPLEX (TTMTR)

Note: This is a ROCKET BODY
aabbcc
Your satellite tracking list
Your tracking list is empty




NASA's NSSDC Master Catalog

Two Line Element Set (TLE):
1 26557U 00059D   22144.69946471 -.00000106  00000-0  00000-0 0  9996
2 26557  14.2999 239.2648 5065074 125.9531 309.0706  1.86636268147540
Source of the keplerian elements: AFSPC